FENGYUN 1C DEB, 30964

Orbit data source: Space-Track

FENGYUN 1C DEB, 30964 is space debris in SSO originally from a launch on Mon, 10 May 1999 UTC launched from the Taiyaun Space Center, China (TSC). Fengyun 1C debris stems from the Chinese weather satellite Fengyun-1C, which was intentionally destroyed by a Chinese anti-satellite missile in 2007. This event dramatically increased the amount of space debris, with thousands of trackable fragments posing hazards to satellites and human spaceflight. The Fengyun 1C debris cloud has become a focal point in discussions about space sustainability and the need for international regulations to prevent the creation of new debris.

Loading next visibility...
Identifier
30964, 1999-025BBE
Orbit
SSO
Country
Flag of CNCN / PRC
Related business
Manufacturer
Unknown
Mission
Spacecraft
Bus & Motor
Unknown
Mass
Unknown
Launch date (UTC)
1999-05-10 (27 years ago)
Launch vehicle
Unknown
Launch site
Taiyaun Space Center, China (TSC)
Object type
Payload
Rocket body
Debris
Shape & HBR
Unknown shape, 0.1 m
Radar Cross Section
Small (<0.1 m²)

Expand to show TLE details & history
Last TLE update: 2 weeks ago

TLE from 2 weeks ago
0 FENGYUN 1C DEB
1 30964U 99025BBE 26149.84326716  .00002380  00000-0  14775-2 0  9995
2 30964  98.6753 113.7631 0139934 126.2253 264.8851 14.01221910977495
Epoch: 2026-05-29T20:14Z
TLE epoch observation values (Epoch: 2026-05-29T20:14:18.282Z)
Latitude
29.19332°
Longitude
-82.04567°
Altitude
903.648 km
Speed
7.398 km/s
True Right ascension
07h 15m 35s
True Declination
29° 03' 00"
Sunlit
Object was in daylight at epoch
Visualization orbit readout
Latitude
Unknown
Longitude
Unknown
Altitude
Unknown
Speed
Unknown
Apparent Right ascension
Unknown
Apparent Declination
Unknown
Sunlit
N/A
Visualization observer readout
Local Sidereal Time
04:04:05
Azimuth
Unknown
Elevation
Unknown
Doppler factor
Unknown
Orbital elements
Apogee altitude
988.409 km
Perigee altitude
785.088 km
Semi-major axis
7,264.885 km
Eccentricity
0.01399
Inclination
98.6753°
RAAN
113.7631°
Arg. of periapsis
126.2253°
True anomaly
263.29065°
Mean anomaly
264.8851°
Eccentric anomaly
264.0876°
Mean motion
3.5051 °/min
Orbital period
102.71 mins
BSTAR
0.0014775
Loading maneuver chart data...
Computing Atmospheric mass density...
Loading historical data...
Loading historical data...
Loading historical data...
Loading historical data...
Loading historical data...
Loading historical data...
Loading historical data...

Documentation

Showing up to 5 results
|